Ankeny, IA

7:58 AM CST on January 21, 2018 (GMT -0600)
Ankeny Regional

Weather History for KIKV - June, 2013

Change the Weather History Date:

Tuesday, June 25, 2013

  Actual Average (KDSM) Record (KDSM)
Temperature  
Mean Temperature 78 °F -  
Max Temperature 87 °F 84 °F 99 °F (1954)
Min Temperature 69 °F 63 °F 47 °F (1958)
Cooling Degree Days 13    
Growing Degree Days 28 (Base 50)    
Moisture  
Dew Point 71 °F    
Average Humidity 82    
Maximum Humidity 100    
Minimum Humidity 52    
Precipitation  
Precipitation 0.10 in - - ()
Sea Level Pressure  
Sea Level Pressure 29.77 in    
Wind  
Wind Speed 7 mph (SSE)    
Max Wind Speed 15 mph    
Max Gust Speed 21 mph    
Visibility 10 miles    
Events Rain    
Averages and records for this station are not official NWS values.
T = Trace of Precipitation, MM = Missing Value Source: NWS Daily Summary

Daily Weather History Graph

Daily Weather History Graph

Search for Another Location

Airport or City:

Trip Planner

Search our weather history database for the weather conditions in past years. The results will help you decide how hot, cold, wet, or windy it might be!

Date:

Astronomy

Jun. 25, 2013 Rise Set
Actual Time 5:41 AM CDT 8:52 PM CDT
Civil Twilight 5:06 AM CDT 9:27 PM CDT
Nautical Twilight 4:22 AM CDT 10:10 PM CDT
Astronomical Twilight 3:30 AM CDT 11:03 PM CDT
Moon 10:35 PM CDT (6/25) 8:24 AM CDT (6/25)
Length of Visible Light 16h 20m
Length of Day
15h 11m
Waning Gibbous, 92% of the Moon is Illuminated
Jun 25
Waning Gibbous
Jun 29
Last Quarter
Jul 8
New
Jul 15
First Quarter
Jul 22
Full

Hourly Weather History & Observations

Time (CDT) Temp. Heat Index Dew Point Humidity Pressure Visibility Wind Dir Wind Speed Gust Speed Precip Events Conditions
12:15 AM 69.8 °F - 68.0 °F 94% 29.82 in 10.0 mi SSE 8.1 mph - N/A   Clear
12:35 AM 69.8 °F - 68.0 °F 94% 29.81 in 10.0 mi SSE 9.2 mph - N/A   Clear
12:55 AM 69.8 °F - 68.0 °F 94% 29.80 in 10.0 mi SSE 8.1 mph - N/A   Clear
1:15 AM 69.8 °F - 68.0 °F 94% 29.79 in 10.0 mi SSE 6.9 mph - N/A   Clear
1:35 AM 71.6 °F - 69.8 °F 94% 29.79 in 10.0 mi South 9.2 mph - N/A   Clear
1:55 AM 71.6 °F - 69.8 °F 94% 29.79 in 10.0 mi SSE 4.6 mph - N/A   Clear
2:15 AM 69.8 °F - 69.8 °F 100% 29.79 in 10.0 mi SSE 5.8 mph - N/A   Clear
2:35 AM 71.6 °F - 69.8 °F 94% 29.79 in 10.0 mi SSE 5.8 mph - N/A   Mostly Cloudy
2:55 AM 69.8 °F - 69.8 °F 100% 29.78 in 10.0 mi SSE 4.6 mph - N/A   Scattered Clouds
3:15 AM 69.8 °F - 69.8 °F 100% 29.78 in 10.0 mi SSE 3.5 mph - N/A   Clear
3:35 AM 69.8 °F - 69.8 °F 100% 29.78 in 10.0 mi Calm Calm - N/A   Mostly Cloudy
3:55 AM 71.6 °F - 69.8 °F 94% 29.82 in 10.0 mi WNW 5.8 mph - N/A   Overcast
4:15 AM 71.6 °F - 69.8 °F 94% 29.81 in 5.0 mi Variable 3.5 mph 11.5 mph N/A Rain Light Rain
4:35 AM 71.6 °F - 69.8 °F 94% 29.79 in 7.0 mi Calm Calm - N/A   Mostly Cloudy
4:55 AM 69.8 °F - 69.8 °F 100% 29.78 in 5.0 mi SE 5.8 mph - 0.10 in   Partly Cloudy
5:15 AM 71.6 °F - 69.8 °F 94% 29.77 in 7.0 mi SSE 3.5 mph - N/A   Clear
5:35 AM 71.6 °F - 69.8 °F 94% 29.78 in 8.0 mi Calm Calm - N/A   Clear
5:55 AM 69.8 °F - 69.8 °F 100% 29.77 in 5.0 mi Calm Calm - N/A   Clear
6:15 AM 69.8 °F - 69.8 °F 100% 29.77 in 7.0 mi SSE 5.8 mph - N/A   Clear
6:35 AM 71.6 °F - 69.8 °F 94% 29.78 in 9.0 mi SSE 6.9 mph - N/A   Clear
6:55 AM 71.6 °F - 69.8 °F 94% 29.79 in 10.0 mi Calm Calm - N/A   Clear
7:15 AM 71.6 °F - 69.8 °F 94% 29.79 in 7.0 mi SE 4.6 mph - N/A   Clear
7:35 AM 71.6 °F - 69.8 °F 94% 29.79 in 8.0 mi South 4.6 mph - N/A   Partly Cloudy
7:55 AM 71.6 °F - 69.8 °F 94% 29.80 in 9.0 mi Calm Calm - N/A   Partly Cloudy
8:15 AM 73.4 °F - 71.6 °F 94% 29.82 in 9.0 mi NE 4.6 mph - N/A   Clear
8:35 AM 75.2 °F - 71.6 °F 89% 29.81 in 9.0 mi SE 4.6 mph - N/A   Clear
8:55 AM 75.2 °F - 71.6 °F 89% 29.83 in 10.0 mi SSE 5.8 mph - N/A   Clear
9:15 AM 75.2 °F - 71.6 °F 89% 29.84 in 10.0 mi South 4.6 mph - N/A   Clear
9:35 AM 75.2 °F - 71.6 °F 89% 29.84 in 10.0 mi SE 5.8 mph - N/A   Partly Cloudy
9:55 AM 77.0 °F - 71.6 °F 83% 29.84 in 10.0 mi SE 6.9 mph - N/A   Clear
10:15 AM 77.0 °F - 71.6 °F 83% 29.83 in 10.0 mi SSE 5.8 mph - N/A   Clear
10:35 AM 78.8 °F - 71.6 °F 78% 29.81 in 10.0 mi SE 9.2 mph - N/A   Clear
10:55 AM 77.0 °F - 71.6 °F 83% 29.80 in 10.0 mi SE 8.1 mph - N/A   Clear
11:15 AM 78.8 °F - 73.4 °F 83% 29.80 in 10.0 mi SSE 10.4 mph - N/A   Clear
11:35 AM 82.4 °F 88.2 °F 73.4 °F 74% 29.82 in 10.0 mi South 11.5 mph - N/A   Clear
11:55 AM 82.4 °F 87.2 °F 71.6 °F 70% 29.81 in 10.0 mi South 15.0 mph - N/A   Clear
12:15 PM 82.4 °F 88.2 °F 73.4 °F 74% 29.80 in 10.0 mi South 12.7 mph 19.6 mph N/A   Clear
12:35 PM 84.2 °F 89.6 °F 71.6 °F 66% 29.80 in 10.0 mi South 12.7 mph 18.4 mph N/A   Clear
12:55 PM 84.2 °F 90.9 °F 73.4 °F 70% 29.79 in 10.0 mi South 15.0 mph 20.7 mph N/A   Clear
1:15 PM 84.2 °F 89.6 °F 71.6 °F 66% 29.78 in 10.0 mi South 15.0 mph - N/A   Clear
1:35 PM 86.0 °F 93.4 °F 73.4 °F 66% 29.78 in 10.0 mi South 13.8 mph - N/A   Clear
1:55 PM 87.8 °F 92.6 °F 69.8 °F 55% 29.78 in 10.0 mi SSW 11.5 mph 19.6 mph N/A   Clear
2:15 PM 87.8 °F 91.4 °F 68.0 °F 52% 29.78 in 10.0 mi South 12.7 mph - N/A   Clear
2:35 PM 87.8 °F 91.4 °F 68.0 °F 52% 29.78 in 10.0 mi SSW 12.7 mph 20.7 mph N/A   Clear
2:55 PM 87.8 °F 92.6 °F 69.8 °F 55% 29.77 in 10.0 mi South 10.4 mph 18.4 mph N/A   Clear
3:15 PM 86.0 °F 90.4 °F 69.8 °F 58% 29.77 in 10.0 mi SSE 9.2 mph 16.1 mph N/A   Partly Cloudy
3:35 PM 87.8 °F 92.6 °F 69.8 °F 55% 29.77 in 10.0 mi SE 10.4 mph - N/A   Clear
3:55 PM 86.0 °F 91.8 °F 71.6 °F 62% 29.76 in 10.0 mi SSE 9.2 mph 15.0 mph N/A   Clear
4:15 PM 86.0 °F 90.4 °F 69.8 °F 58% 29.75 in 10.0 mi SSE 11.5 mph 17.3 mph N/A   Clear
4:35 PM 84.2 °F 89.6 °F 71.6 °F 66% 29.74 in 10.0 mi SSE 8.1 mph 16.1 mph N/A   Clear
4:55 PM 86.0 °F 91.8 °F 71.6 °F 62% 29.74 in 10.0 mi SSE 10.4 mph - N/A   Clear
5:15 PM 84.2 °F 89.6 °F 71.6 °F 66% 29.73 in 10.0 mi SSE 9.2 mph - N/A   Clear
5:35 PM 84.2 °F 89.6 °F 71.6 °F 66% 29.73 in 10.0 mi SSE 10.4 mph - N/A   Clear
5:55 PM 84.2 °F 89.6 °F 71.6 °F 66% 29.73 in 10.0 mi SSE 10.4 mph 16.1 mph N/A   Clear
6:15 PM 82.4 °F 88.2 °F 73.4 °F 74% 29.74 in 10.0 mi SSE 6.9 mph - N/A   Clear
6:35 PM 82.4 °F 88.2 °F 73.4 °F 74% 29.73 in - SSE 6.9 mph - N/A   Unknown
6:55 PM 82.4 °F 88.2 °F 73.4 °F 74% 29.74 in 10.0 mi SSE 5.8 mph 11.5 mph N/A   Unknown
7:15 PM 82.4 °F 88.2 °F 73.4 °F 74% 29.74 in 10.0 mi SSE 8.1 mph 15.0 mph N/A   Partly Cloudy
7:35 PM 82.4 °F 88.2 °F 73.4 °F 74% 29.74 in 10.0 mi SE 4.6 mph - N/A   Mostly Cloudy
7:55 PM 82.4 °F 89.5 °F 75.2 °F 79% 29.74 in 10.0 mi SSE 5.8 mph - N/A   Unknown
8:15 PM 82.4 °F 88.2 °F 73.4 °F 74% 29.74 in 10.0 mi SSE 6.9 mph - N/A   Overcast
8:35 PM 80.6 °F 85.4 °F 73.4 °F 79% 29.73 in - SE 4.6 mph - N/A   Unknown
8:55 PM 80.6 °F 85.4 °F 73.4 °F 79% 29.73 in 10.0 mi SE 5.8 mph - N/A   Unknown
9:15 PM 80.6 °F 86.2 °F 75.2 °F 84% 29.73 in 10.0 mi SE 5.8 mph - N/A   Mostly Cloudy
9:35 PM 80.6 °F 86.2 °F 75.2 °F 84% 29.73 in 10.0 mi SSE 5.8 mph - N/A   Mostly Cloudy
9:55 PM 80.6 °F 86.2 °F 75.2 °F 84% 29.73 in 10.0 mi SE 6.9 mph - N/A   Unknown
10:15 PM 78.8 °F - 75.2 °F 89% 29.74 in 10.0 mi SE 4.6 mph - N/A   Mostly Cloudy
10:35 PM 78.8 °F - 75.2 °F 89% 29.73 in 10.0 mi SE 4.6 mph - N/A   Mostly Cloudy
10:55 PM 77.0 °F - 75.2 °F 94% 29.73 in - Calm Calm - N/A   Unknown
11:15 PM 77.0 °F - 75.2 °F 94% 29.73 in 10.0 mi Calm Calm - N/A   Unknown
11:35 PM 77.0 °F - 75.2 °F 94% 29.72 in 10.0 mi SSE 4.6 mph - N/A   Mostly Cloudy
11:55 PM 77.0 °F - 73.4 °F 89% 29.72 in 10.0 mi South 5.8 mph - N/A   Mostly Cloudy